Location: Newark
(6.1731°S, 35.7419°E)
Time: 15:58:48
(UTC+00:00)

Vanguard 1 Rocket - All Passes

Search period start: 19 February 2020 00:00
Search period end: 29 February 2020 00:00
Orbit: 650 x 4226 km, 34.3° (Epoch: 18 February)

Date Brightness Start Highest point End Pass type
(mag) Time Alt. Az. Time Alt. Az. Time Alt. Az.
19 Feb - 07:09:05 10° N 07:14:49 22° NE 07:23:36 10° E daylight
19 Feb - 09:30:57 10° NW 09:40:47 85° SW 10:00:57 10° SE daylight
19 Feb - 11:58:38 10° W 12:13:06 40° SSW 12:36:00 10° SE daylight
19 Feb - 14:32:47 10° SW 14:52:41 31° S 15:13:43 10° ESE daylight
19 Feb - 17:08:34 10° SW 17:32:50 43° SSE 17:49:32 10° E visible
19 Feb - 19:43:15 10° SW 20:06:10 87° SE 20:17:50 10° NE visible
19 Feb - 22:21:30 10° W 22:33:00 26° NW 22:40:09 10° N visible
20 Feb - 08:20:35 10° NW 08:28:34 62° NE 08:44:36 10° ESE daylight
20 Feb - 10:45:52 10° W 10:57:45 50° SSW 11:19:32 10° SE daylight
20 Feb - 13:17:17 10° WSW 13:34:20 31° S 13:56:20 10° SE daylight
20 Feb - 15:52:38 10° SW 16:15:33 36° SSE 16:34:47 10° ESE visible
20 Feb - 18:27:03 10° SW 18:52:03 65° SSE 19:06:18 10° ENE visible
20 Feb - 21:03:06 10° WSW 21:21:24 49° NW 21:31:04 10° NNE visible
21 Feb - 07:11:13 10° NNW 07:17:24 31° NE 07:27:53 10° ESE daylight
21 Feb - 09:34:14 10° WNW 09:43:53 68° SSW 10:03:24 10° SE daylight
21 Feb - 12:02:55 10° WSW 12:17:07 35° SSW 12:38:54 10° SE daylight
21 Feb - 14:36:57 10° SW 14:57:16 32° S 15:18:16 10° ESE daylight
21 Feb - 17:11:14 10° SW 17:36:29 50° SSE 17:53:33 10° E visible
21 Feb - 19:45:52 10° WSW 20:08:54 77° NW 20:20:51 10° NE visible
21 Feb - 22:26:30 10° W 22:35:37 19° NW 22:41:56 10° N visible
22 Feb - 06:04:27 10° NNE 06:06:33 11° NE 06:08:59 10° ENE daylight
22 Feb - 08:23:32 10° NW 08:31:21 81° NE 08:47:28 10° SE daylight
22 Feb - 10:49:47 10° W 11:01:26 41° SSW 11:21:59 10° SE daylight
22 Feb - 13:21:46 10° SW 13:38:52 30° S 14:00:23 10° SE daylight
22 Feb - 15:55:50 10° SW 16:19:36 40° SSE 16:39:12 10° E visible
22 Feb - 18:29:28 10° SW 18:55:05 78° SE 19:09:39 10° ENE visible
22 Feb - 21:06:40 10° WSW 21:23:52 38° NW 21:33:33 10° NNE visible
23 Feb - 07:13:42 10° NNW 07:20:00 44° NE 07:31:33 10° ESE daylight
23 Feb - 09:37:47 10° WNW 09:47:14 54° SSW 10:05:45 10° SE daylight
23 Feb - 12:07:22 10° WSW 12:21:23 31° S 12:42:09 10° SE daylight
23 Feb - 14:40:45 10° SW 15:01:41 34° SSE 15:22:57 10° ESE daylight
23 Feb - 17:13:48 10° SW 17:39:51 59° SSE 17:57:17 10° ENE visible
23 Feb - 19:48:42 10° WSW 20:11:27 63° NW 20:23:41 10° NE visible
23 Feb - 22:32:58 10° WNW 22:38:24 13° NW 22:42:47 10° NNW visible
24 Feb - 06:05:11 10° N 06:09:17 18° NE 06:14:56 10° E daylight
24 Feb - 08:26:43 10° WNW 08:34:22 77° SW 08:50:06 10° SE daylight
24 Feb - 10:53:58 10° WSW 11:05:21 34° SSW 11:24:35 10° SE daylight
24 Feb - 13:26:02 10° SW 13:43:26 30° S 14:04:51 10° ESE daylight
24 Feb - 15:58:44 10° SW 16:23:21 46° SSE 16:43:24 10° E visible
24 Feb - 18:31:59 10° SW 18:57:52 89° NW 19:12:46 10° NE visible
24 Feb - 21:10:49 10° W 21:26:21 29° NW 21:35:48 10° N visible
25 Feb - 07:16:28 10° NW 07:22:43 62° NE 07:34:47 10° ESE daylight
25 Feb - 09:41:36 10° W 09:50:49 42° SSW 10:08:05 10° SE daylight
25 Feb - 12:11:51 10° SW 12:25:48 28° S 12:45:52 10° SE daylight
25 Feb - 14:44:10 10° SW 15:05:51 37° SSE 15:27:34 10° E daylight
25 Feb - 17:16:18 10° SW 17:42:56 70° SSE 18:00:45 10° ENE visible
25 Feb - 19:51:52 10° WSW 20:13:52 51° NW 20:26:18 10° NNE visible
26 Feb - 06:07:11 10° NNW 06:11:58 27° NE 06:19:20 10° E daylight
26 Feb - 08:30:09 10° WNW 08:37:38 58° SSW 08:52:34 10° SE daylight
26 Feb - 10:58:21 10° WSW 11:09:29 29° S 11:27:28 10° SE daylight
26 Feb - 13:30:01 10° SW 13:47:55 31° SSE 14:09:35 10° ESE daylight
26 Feb - 16:01:27 10° SW 16:26:47 54° SSE 16:47:19 10° ENE visible
26 Feb - 18:34:40 10° WSW 19:00:26 75° NW 19:15:40 10° NE visible
26 Feb - 21:15:44 10° W 21:28:58 22° NW 21:37:45 10° N visible
27 Feb - 07:19:30 10° NW 07:25:40 88° NE 07:37:42 10° SE daylight
27 Feb - 09:45:41 10° WSW 09:54:39 34° SSW 10:10:29 10° SE daylight
27 Feb - 12:16:14 10° SW 12:30:18 27° S 12:50:04 10° SE daylight
27 Feb - 14:47:18 10° SW 15:09:43 42° SSE 15:32:00 10° E daylight
27 Feb - 17:18:49 10° SW 17:45:45 81° SE 18:03:58 10° ENE visible
27 Feb - 19:55:27 10° WSW 20:16:17 41° NW 20:28:45 10° NNE visible
28 Feb - 06:09:40 10° NNW 06:14:42 42° NE 06:23:03 10° ESE daylight
28 Feb - 08:33:51 10° W 08:41:09 43° SSW 08:54:56 10° SE daylight
28 Feb - 11:02:51 10° SW 11:13:47 26° S 11:30:43 10° SE daylight
28 Feb - 13:33:38 10° SW 13:52:10 33° SSE 14:14:24 10° ESE daylight
28 Feb - 16:04:04 10° SW 16:29:54 63° SSE 16:50:57 10° ENE visible
28 Feb - 18:37:34 10° WSW 19:02:51 63° NW 19:18:24 10° NE visible
28 Feb - 21:21:43 10° WNW 21:31:48 17° NW 21:39:14 10° N visible
